timestamp,surface_pressure_avg,surface_temp_avg,battery_voltage,lat,long
2022-02-13 00:09:01+00:00,264.4414,1.5,12.57,47.84626,-54.09684
2022-02-13 00:19:01+00:00,263.3148,1.5,12.57,47.84626,-54.09684
2022-02-13 00:29:01+00:00,255.4897,1.5,12.57,47.84626,-54.09684
2022-02-13 00:39:01+00:00,251.8331,1.5,12.57,47.84626,-54.09684
2022-02-13 00:49:01+00:00,256.3464,1.5,12.57,47.84626,-54.09684
2022-02-13 00:59:01+00:00,252.8364,1.5,12.57,47.84626,-54.09684
2022-02-13 01:09:01+00:00,242.6014,1.5,12.57,47.84626,-54.09684
2022-02-13 01:19:01+00:00,240.8214,1.5,12.57,47.84626,-54.09684
2022-02-13 01:29:01+00:00,243.1914,1.57,12.57,47.84626,-54.09684
2022-02-13 01:39:01+00:00,237.0981,1.6,12.57,47.84626,-54.09684
2022-02-13 01:49:01+00:00,228.4298,1.5,12.57,47.84626,-54.09684
2022-02-13 01:59:01+00:00,225.2014,1.5,12.57,47.84626,-54.09684
2022-02-13 02:09:01+00:00,228.6048,1.57,12.57,47.84626,-54.09684
2022-02-13 02:19:01+00:00,226.0347,1.52,12.49,47.84626,-54.09684
2022-02-13 02:29:01+00:00,217.7631,1.55,12.49,47.84626,-54.09684
2022-02-13 02:39:01+00:00,215.4164,1.58,12.49,47.84626,-54.09684
2022-02-13 02:49:01+00:00,217.6764,1.57,12.49,47.84626,-54.09684
2022-02-13 02:59:01+00:00,213.3315,1.56,12.49,47.84626,-54.09684
2022-02-13 03:09:01+00:00,208.4081,1.56,12.49,47.84626,-54.09684
2022-02-13 03:19:01+00:00,213.8014,1.57,12.49,47.84626,-54.09684
2022-02-13 03:29:01+00:00,218.5964,1.54,12.49,47.84626,-54.09684
2022-02-13 03:39:01+00:00,213.0348,1.57,12.49,47.84626,-54.09684
2022-02-13 03:49:01+00:00,212.0764,1.55,12.49,47.84626,-54.09684
2022-02-13 03:59:01+00:00,218.9831,1.56,12.49,47.84626,-54.09684
2022-02-13 04:09:01+00:00,218.3881,1.55,12.49,47.84626,-54.09684
2022-02-13 04:19:01+00:00,213.9064,1.57,12.49,47.84626,-54.09684
2022-02-13 04:29:01+00:00,215.5631,1.57,12.49,47.84626,-54.09684
2022-02-13 04:39:01+00:00,221.4364,1.58,12.49,47.84626,-54.09684
2022-02-13 04:49:01+00:00,222.8398,1.58,12.49,47.84626,-54.09684
2022-02-13 04:59:01+00:00,223.0965,1.58,12.49,47.84626,-54.09684
2022-02-13 05:09:01+00:00,227.7348,1.57,12.49,47.84626,-54.09684
2022-02-13 05:19:01+00:00,232.7248,1.57,12.49,47.84626,-54.09684
2022-02-13 05:29:01+00:00,233.6031,1.58,12.49,47.84626,-54.09684
2022-02-13 05:39:01+00:00,235.6181,1.59,12.49,47.84626,-54.09684
2022-02-13 05:49:01+00:00,239.6914,1.59,12.49,47.84626,-54.09684
2022-02-13 05:59:01+00:00,241.9964,1.57,12.49,47.84626,-54.09684
2022-02-13 06:09:01+00:00,245.2215,1.57,12.49,47.84626,-54.09684
2022-02-13 06:19:00+00:00,253.3297,1.58,12.49,47.84626,-54.09684
2022-02-13 06:29:00+00:00,259.8197,1.58,12.49,47.84626,-54.09684
2022-02-13 06:39:00+00:00,265.3548,1.59,12.49,47.84626,-54.09684
2022-02-13 06:49:00+00:00,271.9547,1.58,12.49,47.84626,-54.09684
2022-02-13 06:59:00+00:00,278.1614,1.58,12.49,47.84626,-54.09684
2022-02-13 07:09:00+00:00,278.1631,1.52,12.49,47.84626,-54.09684
2022-02-13 07:19:00+00:00,282.0047,1.52,12.49,47.84626,-54.09684
2022-02-13 07:29:00+00:00,291.0964,1.53,12.49,47.84626,-54.09684
2022-02-13 07:39:00+00:00,295.2364,1.53,12.49,47.84626,-54.09684
2022-02-13 07:49:00+00:00,294.113,1.51,12.49,47.84626,-54.09684
2022-02-13 07:59:00+00:00,302.0046,1.51,12.49,47.84626,-54.09684
2022-02-13 08:09:00+00:00,312.283,1.52,12.49,47.84626,-54.09684
2022-02-13 08:19:01+00:00,311.1047,1.52,12.49,47.84626,-54.09684
2022-02-13 08:29:01+00:00,314.7563,1.5,12.49,47.84626,-54.09684
2022-02-13 08:39:01+00:00,323.9196,1.5,12.49,47.84626,-54.09684
2022-02-13 08:49:01+00:00,324.9246,1.5,12.49,47.84626,-54.09684
2022-02-13 08:59:01+00:00,319.5197,1.5,12.49,47.84626,-54.09684
2022-02-13 09:09:01+00:00,320.2997,1.5,12.49,47.84626,-54.09684
2022-02-13 09:19:00+00:00,320.5063,1.52,12.49,47.84626,-54.09684
2022-02-13 09:29:00+00:00,319.1396,1.53,12.49,47.84626,-54.09684
2022-02-13 09:39:00+00:00,318.723,1.52,12.49,47.84626,-54.09684
2022-02-13 09:49:00+00:00,322.5829,1.51,12.49,47.84626,-54.09684
2022-02-13 09:59:00+00:00,322.418,1.52,12.49,47.84626,-54.09684
2022-02-13 10:09:00+00:00,315.9097,1.54,12.49,47.84626,-54.09684
2022-02-13 10:19:00+00:00,315.3196,1.53,12.49,47.84626,-54.09684
2022-02-13 10:29:00+00:00,312.0397,1.52,12.49,47.84626,-54.09684
2022-02-13 10:39:00+00:00,308.843,1.54,12.49,47.84626,-54.09684
2022-02-13 10:49:00+00:00,306.6414,1.54,12.49,47.84626,-54.09684
2022-02-13 10:59:00+00:00,307.4514,1.53,12.49,47.84626,-54.09684
2022-02-13 11:09:00+00:00,300.7429,1.52,12.49,47.84626,-54.09684
2022-02-13 11:19:00+00:00,293.013,1.54,12.49,47.84626,-54.09684
2022-02-13 11:29:00+00:00,297.1247,1.56,12.49,47.84626,-54.09684
2022-02-13 11:39:00+00:00,295.7081,1.56,12.49,47.84626,-54.09684
2022-02-13 11:49:00+00:00,288.6747,1.56,12.49,47.84626,-54.09684
2022-02-13 11:59:00+00:00,287.4564,1.58,12.49,47.84626,-54.09684
2022-02-13 12:09:00+00:00,285.3947,1.58,12.49,47.84626,-54.09684
2022-02-13 12:19:01+00:00,277.6281,1.58,12.49,47.84626,-54.09684
2022-02-13 12:29:01+00:00,271.8214,1.58,12.49,47.84626,-54.09684
2022-02-13 12:39:01+00:00,276.4231,1.59,12.49,47.84626,-54.09684
2022-02-13 12:49:01+00:00,272.4781,1.61,12.49,47.84626,-54.09684
2022-02-13 12:59:01+00:00,264.1548,1.61,12.49,47.84626,-54.09684
2022-02-13 13:09:01+00:00,259.4897,1.61,12.49,47.84626,-54.09684
2022-02-13 13:19:00+00:00,259.1231,1.61,12.49,47.84626,-54.09684
2022-02-13 13:29:00+00:00,253.3897,1.6,12.49,47.84626,-54.09684
2022-02-13 13:39:00+00:00,244.5481,1.6,12.49,47.84626,-54.09684
2022-02-13 13:49:00+00:00,246.1747,1.6,12.49,47.84626,-54.09684
2022-02-13 13:59:00+00:00,248.2131,1.6,12.49,47.84626,-54.09684
2022-02-13 14:09:00+00:00,239.8448,1.6,12.49,47.84626,-54.09684
2022-02-13 14:19:00+00:00,232.1381,1.6,12.49,47.84626,-54.09684
2022-02-13 14:29:00+00:00,232.5181,1.6,12.49,47.84626,-54.09684
2022-02-13 14:39:00+00:00,229.7864,1.6,12.49,47.84626,-54.09684
2022-02-13 14:49:00+00:00,221.0331,1.6,12.49,47.84626,-54.09684
2022-02-13 14:59:00+00:00,216.7415,1.6,12.49,47.84626,-54.09684
2022-02-13 15:09:00+00:00,219.3365,1.6,12.49,47.84626,-54.09684
2022-02-13 15:19:00+00:00,216.5414,1.6,12.49,47.84626,-54.09684
2022-02-13 15:29:00+00:00,208.2881,1.6,12.49,47.84626,-54.09684
2022-02-13 15:39:00+00:00,208.1815,1.6,12.49,47.84626,-54.09684
2022-02-13 15:49:00+00:00,213.2648,1.6,12.49,47.84626,-54.09684
2022-02-13 15:59:00+00:00,208.4414,1.6,12.49,47.84626,-54.09684
2022-02-13 16:09:00+00:00,208.6747,1.6,12.49,47.84626,-54.09684
2022-02-13 16:19:00+00:00,215.0531,1.6,12.49,47.84626,-54.09684
2022-02-13 16:29:00+00:00,214.9764,1.6,12.49,47.84626,-54.09684
2022-02-13 16:39:00+00:00,214.8998,1.62,12.49,47.84626,-54.09684
2022-02-13 16:49:00+00:00,220.7315,1.63,12.49,47.84626,-54.09684
2022-02-13 16:59:00+00:00,220.6081,1.67,12.49,47.84626,-54.09684
2022-02-13 17:09:00+00:00,217.4298,1.7,12.49,47.84626,-54.09684
2022-02-13 17:19:00+00:00,220.3781,1.7,12.49,47.84626,-54.09684
2022-02-13 17:29:00+00:00,223.6348,1.7,12.49,47.84626,-54.09684
2022-02-13 17:39:00+00:00,225.5398,1.7,12.49,47.84626,-54.09684
2022-02-13 17:49:00+00:00,231.2031,1.69,12.49,47.84626,-54.09684
2022-02-13 17:59:00+00:00,236.2581,1.68,12.49,47.84626,-54.09684
2022-02-13 18:09:00+00:00,233.4114,1.69,12.49,47.84626,-54.09684
2022-02-13 18:19:00+00:00,234.7331,1.69,12.49,47.84626,-54.09684
2022-02-13 18:29:00+00:00,242.6814,1.69,12.49,47.84626,-54.09684
2022-02-13 18:39:00+00:00,248.4631,1.7,12.49,47.84626,-54.09684
2022-02-13 18:49:00+00:00,249.4097,1.7,12.49,47.84626,-54.09684
2022-02-13 18:59:00+00:00,252.2247,1.7,12.49,47.84626,-54.09684
2022-02-13 19:09:00+00:00,257.8314,1.7,12.49,47.84626,-54.09684
2022-02-13 19:19:01+00:00,260.1447,1.7,12.49,47.84626,-54.09684
2022-02-13 19:29:01+00:00,259.9631,1.7,12.49,47.84626,-54.09684
2022-02-13 19:39:01+00:00,270.5581,1.7,12.49,47.84626,-54.09684
2022-02-13 19:49:01+00:00,276.6864,1.7,12.49,47.84626,-54.09684
2022-02-13 19:59:01+00:00,275.6414,1.7,12.49,47.84626,-54.09684
2022-02-13 20:09:01+00:00,276.4147,1.7,12.49,47.84626,-54.09684
2022-02-13 20:19:00+00:00,285.0881,1.69,12.49,47.84626,-54.09684
2022-02-13 20:29:00+00:00,283.6314,1.69,12.49,47.84626,-54.09684
2022-02-13 20:39:00+00:00,291.0014,1.69,12.49,47.84626,-54.09684
2022-02-13 20:49:00+00:00,297.0564,1.68,12.49,47.84626,-54.09684
2022-02-13 20:59:00+00:00,301.1664,1.67,12.49,47.84626,-54.09684
2022-02-13 21:09:00+00:00,298.0514,1.69,12.49,47.84626,-54.09684
2022-02-13 21:19:01+00:00,306.8913,1.74,12.49,47.84626,-54.09684
2022-02-13 21:29:01+00:00,310.7146,1.7,12.49,47.84626,-54.09684
2022-02-13 21:39:01+00:00,310.223,1.7,12.49,47.84626,-54.09684
2022-02-13 21:49:01+00:00,314.7563,1.69,12.49,47.84626,-54.09684
2022-02-13 21:59:01+00:00,324.9562,1.7,12.49,47.84626,-54.09684
2022-02-13 22:09:01+00:00,321.2847,1.7,12.49,47.84626,-54.09684
2022-02-13 22:19:00+00:00,314.9664,1.7,12.49,47.84626,-54.09684
2022-02-13 22:29:00+00:00,315.888,1.7,12.49,47.84626,-54.09684
2022-02-13 22:39:00+00:00,322.2213,1.7,12.49,47.84626,-54.09684
2022-02-13 22:49:00+00:00,317.6413,1.67,12.49,47.84626,-54.09684
2022-02-13 22:59:00+00:00,317.483,1.64,12.49,47.84626,-54.09684
2022-02-13 23:09:00+00:00,321.4612,1.7,12.49,47.84626,-54.09684
2022-02-13 23:19:01+00:00,324.5479,1.7,12.41,47.84626,-54.09684
2022-02-13 23:29:01+00:00,319.113,1.7,12.41,47.84626,-54.09684
2022-02-13 23:39:01+00:00,316.8246,1.73,12.41,47.84626,-54.09684
2022-02-13 23:49:01+00:00,316.6813,1.78,12.41,47.84626,-54.09684
2022-02-13 23:59:01+00:00,314.683,1.73,12.41,47.84626,-54.09684
